Time,TemperatureF,DewpointF,PressureIn,WindDirection,WindDirectionDegrees,WindSpeedMPH,WindSpeedGustMPH,Humidity,HourlyPrecipIn,Conditions,Clouds,dailyrainin,SoftwareType,DateUTC
2013-03-01 00:02:00,31.0,28.0,30.06,North,350,4.0,8.0,89,0.00,,,0.04,,2013-03-01 05:02:00,
2013-03-01 00:11:00,31.0,28.0,30.06,North,350,4.0,8.0,89,0.00,,,0.04,,2013-03-01 05:11:00,
2013-03-01 00:22:00,31.0,28.0,30.06,North,349,4.0,8.0,89,0.00,,,0.04,,2013-03-01 05:22:00,
2013-03-01 00:32:00,31.0,28.0,30.06,NNW,346,5.0,9.0,89,0.00,,,0.04,,2013-03-01 05:32:00,
2013-03-01 00:42:00,31.0,28.0,30.06,NNW,346,5.0,9.0,89,0.00,,,0.04,,2013-03-01 05:42:00,
2013-03-01 00:53:00,31.0,28.0,30.06,North,355,3.0,9.0,89,0.00,,,0.04,,2013-03-01 05:53:00,
2013-03-01 01:02:00,30.0,27.0,30.06,NNW,344,5.0,8.0,89,0.00,,,0.04,,2013-03-01 06:02:00,
2013-03-01 01:11:00,30.0,27.0,30.06,NNW,344,5.0,8.0,89,0.00,,,0.04,,2013-03-01 06:11:00,
2013-03-01 01:22:00,30.0,27.0,30.06,NNW,348,4.0,10.0,89,0.00,,,0.04,,2013-03-01 06:22:00,
2013-03-01 01:32:00,30.0,27.0,30.06,NW,315,8.0,11.0,88,0.00,,,0.04,,2013-03-01 06:32:00,
2013-03-01 01:42:00,30.0,27.0,30.06,NW,315,8.0,11.0,88,0.00,,,0.04,,2013-03-01 06:42:00,
2013-03-01 01:52:00,30.0,27.0,30.06,NW,315,5.0,9.0,88,0.00,,,0.04,,2013-03-01 06:52:00,
2013-03-01 02:01:00,30.0,27.0,30.06,NNW,327,7.0,10.0,88,0.00,,,0.04,,2013-03-01 07:01:00,
2013-03-01 02:11:00,30.0,27.0,30.06,NNW,327,7.0,10.0,88,0.00,,,0.04,,2013-03-01 07:11:00,
2013-03-01 02:22:00,30.0,27.0,30.05,North,350,5.0,9.0,88,0.00,,,0.04,,2013-03-01 07:22:00,
2013-03-01 02:32:00,30.0,27.0,30.05,NNW,338,5.0,9.0,87,0.00,,,0.04,,2013-03-01 07:32:00,
2013-03-01 02:42:00,30.0,27.0,30.05,NNW,338,5.0,9.0,87,0.00,,,0.04,,2013-03-01 07:42:00,
2013-03-01 02:52:00,30.0,27.0,30.04,NNW,342,7.0,11.0,87,0.00,,,0.04,,2013-03-01 07:52:00,
2013-03-01 03:02:00,29.0,26.0,30.04,North,5,5.0,10.0,88,0.00,,,0.04,,2013-03-01 08:02:00,
2013-03-01 03:11:00,29.0,26.0,30.04,North,5,5.0,10.0,88,0.00,,,0.04,,2013-03-01 08:11:00,
2013-03-01 03:22:00,29.0,26.0,30.04,North,355,5.0,11.0,88,0.00,,,0.04,,2013-03-01 08:22:00,
2013-03-01 03:32:00,29.0,26.0,30.04,NNW,346,7.0,11.0,89,0.00,,,0.04,,2013-03-01 08:32:00,
2013-03-01 03:42:00,29.0,26.0,30.04,NNW,346,7.0,11.0,89,0.00,,,0.04,,2013-03-01 08:42:00,
2013-03-01 03:53:00,29.0,26.0,30.04,NNW,330,7.0,12.0,90,0.00,,,0.04,,2013-03-01 08:53:00,
2013-03-01 04:02:00,29.0,26.0,30.04,NNW,342,5.0,13.0,90,0.00,,,0.04,,2013-03-01 09:02:00,
2013-03-01 04:12:00,29.0,26.0,30.04,NNW,342,5.0,13.0,90,0.00,,,0.04,,2013-03-01 09:12:00,
2013-03-01 04:22:00,29.0,26.0,30.04,NNW,339,6.0,9.0,90,0.00,,,0.04,,2013-03-01 09:22:00,
2013-03-01 04:32:00,28.0,26.0,30.03,North,355,7.0,12.0,91,0.00,,,0.04,,2013-03-01 09:32:00,
2013-03-01 04:42:00,28.0,26.0,30.03,North,355,7.0,12.0,91,0.00,,,0.04,,2013-03-01 09:42:00,
2013-03-01 04:52:00,28.0,26.0,30.03,North,10,6.0,11.0,91,0.00,,,0.04,,2013-03-01 09:52:00,
2013-03-01 05:02:00,28.0,26.0,30.04,NW,325,6.0,12.0,91,0.00,,,0.04,,2013-03-01 10:02:00,
2013-03-01 05:11:00,28.0,26.0,30.04,NW,325,6.0,12.0,91,0.00,,,0.04,,2013-03-01 10:11:00,
2013-03-01 05:22:00,28.0,26.0,30.04,NNW,329,5.0,11.0,92,0.00,,,0.04,,2013-03-01 10:22:00,
2013-03-01 05:32:00,28.0,26.0,30.04,North,350,7.0,11.0,92,0.00,,,0.04,,2013-03-01 10:32:00,
2013-03-01 05:42:00,28.0,26.0,30.04,North,350,7.0,11.0,92,0.00,,,0.04,,2013-03-01 10:42:00,
2013-03-01 05:53:00,28.0,26.0,30.05,North,360,6.0,12.0,92,0.00,,,0.04,,2013-03-01 10:53:00,
2013-03-01 06:01:00,28.0,26.0,30.05,NNW,333,6.0,10.0,93,0.00,,,0.04,,2013-03-01 11:01:00,
2013-03-01 06:11:00,28.0,26.0,30.05,NNW,333,6.0,10.0,93,0.00,,,0.04,,2013-03-01 11:11:00,
2013-03-01 06:22:00,28.0,26.0,30.05,North,9,7.0,12.0,93,0.00,,,0.04,,2013-03-01 11:22:00,
2013-03-01 06:32:00,27.0,25.0,30.05,North,5,6.0,10.0,93,0.00,,,0.04,,2013-03-01 11:32:00,
2013-03-01 06:42:00,27.0,25.0,30.05,North,5,6.0,10.0,93,0.00,,,0.04,,2013-03-01 11:42:00,
2013-03-01 06:52:00,27.0,25.0,30.06,North,360,6.0,12.0,93,0.00,,,0.04,,2013-03-01 11:52:00,
2013-03-01 07:01:00,27.0,26.0,30.06,North,5,6.0,10.0,94,0.00,,,0.04,,2013-03-01 12:01:00,
2013-03-01 07:11:00,27.0,26.0,30.06,North,5,6.0,10.0,94,0.00,,,0.04,,2013-03-01 12:11:00,
2013-03-01 07:21:00,27.0,26.0,30.06,North,9,7.0,11.0,94,0.00,,,0.04,,2013-03-01 12:21:00,
2013-03-01 07:32:00,27.0,26.0,30.06,North,11,5.0,10.0,94,0.00,,,0.04,,2013-03-01 12:32:00,
2013-03-01 07:42:00,27.0,26.0,30.06,North,11,5.0,10.0,94,0.00,,,0.04,,2013-03-01 12:42:00,
2013-03-01 07:52:00,27.0,26.0,30.06,North,11,5.0,11.0,94,0.00,,,0.04,,2013-03-01 12:52:00,
2013-03-01 08:01:00,27.0,26.0,30.06,North,11,5.0,11.0,94,0.00,,,0.04,,2013-03-01 13:01:00,
2013-03-01 08:11:00,27.0,26.0,30.06,North,11,5.0,11.0,94,0.00,,,0.04,,2013-03-01 13:11:00,
2013-03-01 08:21:00,27.0,26.0,30.06,North,11,5.0,11.0,94,0.00,,,0.04,,2013-03-01 13:21:00,
2013-03-01 08:32:00,27.0,26.0,30.07,North,5,5.0,11.0,94,0.00,,,0.04,,2013-03-01 13:32:00,
2013-03-01 08:42:00,27.0,26.0,30.07,North,5,5.0,11.0,94,0.00,,,0.04,,2013-03-01 13:42:00,
2013-03-01 08:52:00,27.0,26.0,30.08,NNW,341,5.0,9.0,94,0.00,,,0.04,,2013-03-01 13:52:00,
2013-03-01 09:01:00,28.0,27.0,30.08,NNW,336,5.0,8.0,94,0.00,,,0.04,,2013-03-01 14:01:00,
2013-03-01 09:11:00,28.0,27.0,30.08,NNW,336,5.0,8.0,94,0.00,,,0.04,,2013-03-01 14:11:00,
2013-03-01 09:21:00,28.0,27.0,30.08,NNW,340,5.0,10.0,94,0.00,,,0.04,,2013-03-01 14:21:00,
2013-03-01 09:32:00,28.0,27.0,30.09,North,5,4.0,10.0,95,0.00,,,0.04,,2013-03-01 14:32:00,
2013-03-01 09:41:00,28.0,27.0,30.09,North,5,4.0,10.0,95,0.00,,,0.04,,2013-03-01 14:41:00,
2013-03-01 09:52:00,28.0,27.0,30.09,North,10,5.0,10.0,95,0.00,,,0.04,,2013-03-01 14:52:00,
2013-03-01 10:01:00,28.0,27.0,30.08,North,351,4.0,8.0,95,0.00,,,0.04,,2013-03-01 15:01:00,
2013-03-01 10:11:00,28.0,27.0,30.08,North,5,4.0,9.0,95,0.00,,,0.04,,2013-03-01 15:11:00,
2013-03-01 10:21:00,28.0,27.0,30.08,North,5,4.0,9.0,95,0.00,,,0.04,,2013-03-01 15:21:00,
2013-03-01 10:31:00,29.0,28.0,30.08,NNE,13,4.0,7.0,95,0.00,,,0.04,,2013-03-01 15:31:00,
2013-03-01 10:42:00,29.0,28.0,30.08,NNE,13,4.0,7.0,95,0.00,,,0.04,,2013-03-01 15:42:00,
2013-03-01 10:52:00,29.0,28.0,30.08,North,5,5.0,8.0,95,0.00,,,0.04,,2013-03-01 15:52:00,
2013-03-01 11:01:00,30.0,29.0,30.09,NNE,30,4.0,8.0,95,0.00,,,0.04,,2013-03-01 16:01:00,
2013-03-01 11:11:00,30.0,29.0,30.09,NNE,30,4.0,8.0,95,0.00,,,0.04,,2013-03-01 16:11:00,
2013-03-01 11:21:00,30.0,29.0,30.09,NNE,30,4.0,8.0,95,0.00,,,0.04,,2013-03-01 16:21:00,
2013-03-01 11:32:00,30.0,29.0,30.09,NNE,30,4.0,8.0,95,0.00,,,0.04,,2013-03-01 16:32:00,
2013-03-01 11:42:00,30.0,29.0,30.09,NNE,30,4.0,8.0,95,0.00,,,0.04,,2013-03-01 16:42:00,
2013-03-01 11:52:00,30.0,29.0,30.10,NNE,24,3.0,7.0,95,0.00,,,0.04,,2013-03-01 16:52:00,
2013-03-01 12:01:00,31.0,30.0,30.10,NNE,24,3.0,8.0,95,0.00,,,0.04,,2013-03-01 17:01:00,
2013-03-01 12:11:00,31.0,30.0,30.10,NNE,24,3.0,8.0,95,0.00,,,0.04,,2013-03-01 17:11:00,
2013-03-01 12:21:00,31.0,29.0,30.10,NE,42,3.0,7.0,94,0.00,,,0.03,,2013-03-01 17:21:00,
2013-03-01 12:32:00,31.0,29.0,30.10,NNE,32,4.0,8.0,94,0.00,,,0.03,,2013-03-01 17:32:00,
2013-03-01 12:41:00,31.0,29.0,30.10,NNE,32,4.0,8.0,94,0.00,,,0.03,,2013-03-01 17:41:00,
2013-03-01 12:52:00,32.0,30.0,30.10,NNE,13,4.0,7.0,93,0.00,,,0.03,,2013-03-01 17:52:00,
2013-03-01 13:01:00,32.0,29.0,30.10,NNE,15,4.0,9.0,90,0.00,,,0.03,,2013-03-01 18:01:00,
2013-03-01 13:12:00,32.0,29.0,30.10,NNE,15,4.0,9.0,90,0.00,,,0.03,,2013-03-01 18:12:00,
2013-03-01 13:22:00,33.0,30.0,30.10,NNE,18,5.0,8.0,87,0.00,,,0.02,,2013-03-01 18:22:00,
2013-03-01 13:31:00,33.0,29.0,30.09,North,10,5.0,8.0,85,0.00,,,0.02,,2013-03-01 18:31:00,
2013-03-01 13:42:00,33.0,29.0,30.09,North,10,5.0,8.0,85,0.00,,,0.02,,2013-03-01 18:42:00,
2013-03-01 13:52:00,33.0,29.0,30.09,NNE,25,2.0,8.0,86,0.00,,,0.02,,2013-03-01 18:52:00,
2013-03-01 14:01:00,32.0,29.0,30.09,NE,38,2.0,8.0,87,0.00,,,0.02,,2013-03-01 19:01:00,
2013-03-01 14:11:00,32.0,29.0,30.09,NE,38,2.0,8.0,87,0.00,,,0.02,,2013-03-01 19:11:00,
2013-03-01 14:21:00,32.0,28.0,30.09,NE,55,3.0,8.0,86,0.00,,,0.01,,2013-03-01 19:21:00,
2013-03-01 14:31:00,33.0,29.0,30.09,NNE,16,3.0,7.0,86,0.00,,,0.01,,2013-03-01 19:31:00,
2013-03-01 14:42:00,33.0,29.0,30.09,NNE,16,3.0,7.0,86,0.00,,,0.01,,2013-03-01 19:42:00,
2013-03-01 14:52:00,33.0,28.0,30.08,NNE,12,3.0,7.0,83,0.00,,,0.01,,2013-03-01 19:52:00,
2013-03-01 15:01:00,32.0,28.0,30.09,NNE,14,3.0,7.0,85,0.01,,,0.02,,2013-03-01 20:01:00,
2013-03-01 15:11:00,32.0,28.0,30.09,NNE,14,3.0,7.0,85,0.01,,,0.02,,2013-03-01 20:11:00,
2013-03-01 15:21:00,32.0,28.0,30.09,NNE,24,3.0,6.0,85,0.01,,,0.01,,2013-03-01 20:21:00,
2013-03-01 15:31:00,32.0,28.0,30.09,NNE,21,2.0,5.0,86,0.01,,,0.01,,2013-03-01 20:31:00,
2013-03-01 15:42:00,32.0,28.0,30.09,NNE,21,2.0,5.0,86,0.01,,,0.01,,2013-03-01 20:42:00,
2013-03-01 15:52:00,32.0,28.0,30.09,NNE,21,2.0,5.0,86,0.01,,,0.01,,2013-03-01 20:52:00,
2013-03-01 16:01:00,32.0,28.0,30.09,NNE,21,3.0,6.0,86,0.00,,,0.01,,2013-03-01 21:01:00,
2013-03-01 16:11:00,32.0,28.0,30.09,NNE,21,3.0,6.0,86,0.00,,,0.01,,2013-03-01 21:11:00,
2013-03-01 16:21:00,32.0,29.0,30.09,NNE,32,3.0,6.0,87,0.00,,,0.01,,2013-03-01 21:21:00,
2013-03-01 16:32:00,32.0,28.0,30.09,NNE,31,3.0,7.0,86,0.00,,,0.01,,2013-03-01 21:32:00,
2013-03-01 16:42:00,32.0,28.0,30.09,NNE,31,3.0,7.0,86,0.00,,,0.01,,2013-03-01 21:42:00,
2013-03-01 16:52:00,32.0,28.0,30.09,NNE,31,3.0,7.0,86,0.00,,,0.01,,2013-03-01 21:52:00,
2013-03-01 17:01:00,32.0,28.0,30.09,NNE,33,3.0,7.0,85,0.00,,,0.01,,2013-03-01 22:01:00,
2013-03-01 17:11:00,32.0,28.0,30.09,NNE,33,3.0,7.0,85,0.00,,,0.01,,2013-03-01 22:11:00,
2013-03-01 17:21:00,32.0,28.0,30.10,NNE,20,4.0,7.0,86,0.00,,,0.01,,2013-03-01 22:21:00,
2013-03-01 17:32:00,32.0,28.0,30.10,North,10,6.0,10.0,86,0.00,,,0.01,,2013-03-01 22:32:00,
2013-03-01 17:42:00,32.0,28.0,30.10,North,10,6.0,10.0,86,0.00,,,0.01,,2013-03-01 22:42:00,
2013-03-01 17:52:00,31.0,27.0,30.10,NNE,24,7.0,11.0,85,0.00,,,0.01,,2013-03-01 22:52:00,
2013-03-01 18:01:00,31.0,27.0,30.11,NNE,25,6.0,12.0,85,0.00,,,0.01,,2013-03-01 23:01:00,
2013-03-01 18:11:00,31.0,27.0,30.11,NNE,25,6.0,12.0,85,0.00,,,0.01,,2013-03-01 23:11:00,
2013-03-01 18:21:00,31.0,27.0,30.11,North,5,5.0,10.0,86,0.00,,,0.01,,2013-03-01 23:21:00,
2013-03-01 18:31:00,31.0,27.0,30.12,North,10,7.0,10.0,86,0.00,,,0.01,,2013-03-01 23:31:00,
2013-03-01 18:41:00,31.0,27.0,30.12,North,10,7.0,10.0,86,0.00,,,0.01,,2013-03-01 23:41:00,
2013-03-01 18:52:00,31.0,27.0,30.12,North,10,7.0,10.0,86,0.00,,,0.01,,2013-03-01 23:52:00,
2013-03-01 19:02:00,30.0,26.0,30.14,NNE,28,7.0,10.0,86,0.00,,,0.01,,2013-03-02 00:02:00,
2013-03-01 19:11:00,30.0,26.0,30.14,NNE,28,7.0,10.0,86,0.00,,,0.01,,2013-03-02 00:11:00,
2013-03-01 19:22:00,30.0,26.0,30.14,North,5,6.0,10.0,85,0.00,,,0.01,,2013-03-02 00:22:00,
2013-03-01 19:32:00,29.0,25.0,30.14,NNE,30,5.0,10.0,84,0.00,,,0.01,,2013-03-02 00:32:00,
2013-03-01 19:42:00,29.0,25.0,30.14,NNE,30,5.0,10.0,84,0.00,,,0.01,,2013-03-02 00:42:00,
2013-03-01 19:52:00,29.0,25.0,30.14,NNE,20,6.0,10.0,86,0.00,,,0.01,,2013-03-02 00:52:00,
2013-03-01 20:01:00,29.0,25.0,30.15,NNE,15,7.0,12.0,86,0.00,,,0.01,,2013-03-02 01:01:00,
2013-03-01 20:11:00,29.0,25.0,30.15,NNE,15,7.0,12.0,86,0.00,,,0.01,,2013-03-02 01:11:00,
2013-03-01 20:21:00,29.0,25.0,30.15,NNE,15,7.0,12.0,86,0.00,,,0.01,,2013-03-02 01:21:00,
2013-03-01 20:31:00,28.0,25.0,30.15,North,9,7.0,10.0,87,0.00,,,0.01,,2013-03-02 01:31:00,
2013-03-01 20:41:00,28.0,25.0,30.15,North,9,7.0,10.0,87,0.00,,,0.01,,2013-03-02 01:41:00,
2013-03-01 20:52:00,28.0,25.0,30.15,North,355,5.0,8.0,87,0.00,,,0.01,,2013-03-02 01:52:00,
2013-03-01 21:01:00,28.0,25.0,30.16,North,5,5.0,10.0,88,0.00,,,0.01,,2013-03-02 02:01:00,
2013-03-01 21:11:00,28.0,25.0,30.16,North,5,5.0,10.0,88,0.00,,,0.01,,2013-03-02 02:11:00,
2013-03-01 21:22:00,28.0,25.0,30.16,North,5,4.0,8.0,88,0.00,,,0.01,,2013-03-02 02:22:00,
2013-03-01 21:32:00,27.0,24.0,30.16,NNE,14,4.0,7.0,89,0.00,,,0.01,,2013-03-02 02:32:00,
2013-03-01 21:42:00,27.0,24.0,30.16,NNE,14,4.0,7.0,89,0.00,,,0.01,,2013-03-02 02:42:00,
2013-03-01 21:52:00,27.0,24.0,30.16,NNE,13,3.0,7.0,89,0.00,,,0.01,,2013-03-02 02:52:00,
2013-03-01 22:01:00,27.0,24.0,30.16,NNE,19,4.0,6.0,89,0.00,,,0.01,,2013-03-02 03:01:00,
2013-03-01 22:11:00,27.0,24.0,30.16,NNE,19,4.0,6.0,89,0.00,,,0.01,,2013-03-02 03:11:00,
2013-03-01 22:21:00,27.0,24.0,30.16,NNE,26,4.0,6.0,89,0.00,,,0.01,,2013-03-02 03:21:00,
2013-03-01 22:32:00,27.0,24.0,30.16,North,5,3.0,7.0,89,0.00,,,0.01,,2013-03-02 03:32:00,
2013-03-01 22:42:00,27.0,24.0,30.16,North,5,3.0,7.0,89,0.00,,,0.01,,2013-03-02 03:42:00,
2013-03-01 22:52:00,27.0,24.0,30.16,NNE,21,3.0,7.0,88,0.00,,,0.01,,2013-03-02 03:52:00,
2013-03-01 23:01:00,27.0,24.0,30.16,NNE,19,3.0,7.0,87,0.00,,,0.01,,2013-03-02 04:01:00,
2013-03-01 23:11:00,27.0,24.0,30.16,NNE,19,3.0,7.0,87,0.00,,,0.01,,2013-03-02 04:11:00,
2013-03-01 23:21:00,28.0,25.0,30.17,NNE,20,3.0,6.0,87,0.00,,,0.01,,2013-03-02 04:21:00,
2013-03-01 23:32:00,27.0,24.0,30.16,NNE,27,3.0,5.0,87,0.00,,,0.01,,2013-03-02 04:32:00,
2013-03-01 23:42:00,27.0,24.0,30.16,NNE,27,3.0,5.0,87,0.00,,,0.01,,2013-03-02 04:42:00,
2013-03-01 23:52:00,27.0,23.0,30.16,NNE,15,3.0,6.0,86,0.00,,,0.01,,2013-03-02 04:52:00,